Time,TemperatureF,DewpointF,PressureIn,WindDirection,WindDirectionDegrees,WindSpeedMPH,WindSpeedGustMPH,Humidity,HourlyPrecipIn,Conditions,Clouds,dailyrainin,SoftwareType,DateUTC
2013-08-15 00:12:00,65.1,56.0,29.75,WNW,290,3.0,12.0,73,0.00,,,0.00,weatherlink.com 1.10,2013-08-15 06:12:00,
2013-08-15 00:27:00,64.3,56.0,29.74,SSE,167,1.0,9.0,75,0.00,,,0.00,weatherlink.com 1.10,2013-08-15 06:27:00,
2013-08-15 00:42:00,64.1,56.0,29.75,NW,309,1.0,11.0,75,0.00,,,0.00,weatherlink.com 1.10,2013-08-15 06:42:00,
2013-08-15 00:57:00,64.3,56.0,29.74,NNW,328,1.0,9.0,74,0.00,,,0.00,weatherlink.com 1.10,2013-08-15 06:57:00,
2013-08-15 01:12:00,64.0,56.0,29.74,SSE,159,1.0,9.0,76,0.00,,,0.00,weatherlink.com 1.10,2013-08-15 07:12:00,
2013-08-15 01:27:00,63.0,56.0,29.73,SSE,161,0.0,7.0,79,0.00,,,0.00,weatherlink.com 1.10,2013-08-15 07:27:00,
2013-08-15 01:42:00,62.0,56.0,29.73,ESE,120,1.0,4.0,81,0.00,,,0.00,weatherlink.com 1.10,2013-08-15 07:42:00,
2013-08-15 01:57:00,61.3,56.0,29.73,South,172,0.0,3.0,83,0.00,,,0.00,weatherlink.com 1.10,2013-08-15 07:57:00,
2013-08-15 02:12:00,60.9,56.0,29.73,South,169,2.0,5.0,84,0.00,,,0.00,weatherlink.com 1.10,2013-08-15 08:12:00,
2013-08-15 02:27:00,60.2,55.0,29.72,SSE,167,2.0,4.0,84,0.00,,,0.00,weatherlink.com 1.10,2013-08-15 08:27:00,
2013-08-15 02:42:00,59.4,55.0,29.72,SSE,148,3.0,4.0,85,0.00,,,0.00,weatherlink.com 1.10,2013-08-15 08:42:00,
2013-08-15 02:58:00,58.9,55.0,29.73,SSE,165,0.0,1.0,86,0.00,,,0.00,weatherlink.com 1.10,2013-08-15 08:58:00,
2013-08-15 03:13:00,59.7,56.0,29.79,WSW,253,3.0,17.0,86,0.00,,,0.00,weatherlink.com 1.10,2013-08-15 09:13:00,
2013-08-15 03:28:00,61.5,57.0,29.78,NW,304,0.0,7.0,84,0.00,,,0.00,weatherlink.com 1.10,2013-08-15 09:28:00,
2013-08-15 03:43:00,61.5,57.0,29.74,SSE,155,2.0,6.0,85,0.00,,,0.00,weatherlink.com 1.10,2013-08-15 09:43:00,
2013-08-15 03:58:00,61.9,57.0,29.71,SSE,161,2.0,16.0,84,0.00,,,0.00,weatherlink.com 1.10,2013-08-15 09:58:00,
2013-08-15 04:13:00,62.1,57.0,29.72,SW,226,5.0,16.0,83,0.00,,,0.00,weatherlink.com 1.10,2013-08-15 10:13:00,
2013-08-15 04:28:00,62.3,57.0,29.72,SW,231,0.0,12.0,82,0.00,,,0.00,weatherlink.com 1.10,2013-08-15 10:28:00,
2013-08-15 04:43:00,62.0,56.0,29.73,SSE,150,4.0,10.0,82,0.00,,,0.00,weatherlink.com 1.10,2013-08-15 10:43:00,
2013-08-15 04:58:00,61.7,57.0,29.74,NW,323,0.0,6.0,83,0.00,,,0.00,weatherlink.com 1.10,2013-08-15 10:58:00,
2013-08-15 05:13:00,61.2,56.0,29.74,West,259,0.0,1.0,84,0.00,,,0.00,weatherlink.com 1.10,2013-08-15 11:13:00,
2013-08-15 05:28:00,60.6,56.0,29.74,SSW,201,2.0,3.0,86,0.00,,,0.00,weatherlink.com 1.10,2013-08-15 11:28:00,
2013-08-15 05:43:00,59.0,55.0,29.76,SW,228,0.0,3.0,85,0.00,,,0.00,weatherlink.com 1.10,2013-08-15 11:43:00,
2013-08-15 05:58:00,-999.0,-99.9,29.77,North,-999,-999.0,-999.0,-999,0.00,,,0.00,weatherlink.com 1.10,2013-08-15 11:58:00,
2013-08-15 06:13:00,-999.0,-99.9,29.76,North,-999,-999.0,-999.0,-999,0.00,,,0.00,weatherlink.com 1.10,2013-08-15 12:13:00,
2013-08-15 06:28:00,-999.0,-99.9,29.79,North,-999,-999.0,-999.0,-999,0.00,,,0.00,weatherlink.com 1.10,2013-08-15 12:28:00,
2013-08-15 06:43:00,-999.0,-99.9,29.79,North,-999,-999.0,-999.0,-999,0.00,,,0.00,weatherlink.com 1.10,2013-08-15 12:43:00,
2013-08-15 06:58:00,61.6,57.0,29.77,NNW,342,0.0,4.0,84,0.00,,,0.00,weatherlink.com 1.10,2013-08-15 12:58:00,
2013-08-15 07:13:00,62.5,57.0,29.78,SSE,150,0.0,1.0,82,0.00,,,0.00,weatherlink.com 1.10,2013-08-15 13:13:00,
2013-08-15 07:28:00,63.5,58.0,29.77,SSE,158,0.0,2.0,81,0.00,,,0.00,weatherlink.com 1.10,2013-08-15 13:28:00,
2013-08-15 07:43:00,66.1,58.0,29.77,SSE,166,0.0,1.0,76,0.00,,,0.00,weatherlink.com 1.10,2013-08-15 13:43:00,
2013-08-15 07:58:00,65.9,58.0,29.78,SSW,203,0.0,1.0,76,0.00,,,0.00,weatherlink.com 1.10,2013-08-15 13:58:00,
2013-08-15 08:13:00,66.8,58.0,29.78,SW,223,0.0,1.0,74,0.00,,,0.00,weatherlink.com 1.10,2013-08-15 14:13:00,
2013-08-15 08:28:00,69.7,58.0,29.77,SSW,210,0.0,2.0,66,0.00,,,0.00,weatherlink.com 1.10,2013-08-15 14:28:00,
2013-08-15 08:43:00,70.9,57.0,29.77,SSE,166,1.0,3.0,61,0.00,,,0.00,weatherlink.com 1.10,2013-08-15 14:43:00,
2013-08-15 08:58:00,72.1,54.0,29.77,SSW,200,1.0,3.0,54,0.00,,,0.00,weatherlink.com 1.10,2013-08-15 14:58:00,
2013-08-15 09:13:00,73.0,54.0,29.77,SW,219,3.0,3.0,51,0.00,,,0.00,weatherlink.com 1.10,2013-08-15 15:13:00,
2013-08-15 09:28:00,74.6,52.0,29.77,SSW,207,1.0,5.0,45,0.00,,,0.00,weatherlink.com 1.10,2013-08-15 15:28:00,
2013-08-15 09:43:00,75.8,52.0,29.76,SSW,200,2.0,5.0,43,0.00,,,0.00,weatherlink.com 1.10,2013-08-15 15:43:00,
2013-08-15 09:58:00,77.1,52.0,29.76,SW,217,1.0,6.0,41,0.00,,,0.00,weatherlink.com 1.10,2013-08-15 15:58:00,
2013-08-15 10:14:00,77.5,51.0,29.76,SSE,165,0.0,4.0,40,0.00,,,0.00,weatherlink.com 1.10,2013-08-15 16:14:00,
2013-08-15 10:29:00,79.8,51.0,29.76,South,191,0.0,5.0,37,0.00,,,0.00,weatherlink.com 1.10,2013-08-15 16:29:00,
2013-08-15 10:44:00,81.3,51.0,29.76,SSE,155,1.0,3.0,35,0.00,,,0.00,weatherlink.com 1.10,2013-08-15 16:44:00,
2013-08-15 10:59:00,81.8,52.0,29.76,South,170,1.0,9.0,35,0.00,,,0.00,weatherlink.com 1.10,2013-08-15 16:59:00,
2013-08-15 11:14:00,83.8,52.0,29.76,South,172,0.0,6.0,33,0.00,,,0.00,weatherlink.com 1.10,2013-08-15 17:14:00,
2013-08-15 11:29:00,82.1,51.0,29.75,SSE,155,2.0,4.0,34,0.00,,,0.00,weatherlink.com 1.10,2013-08-15 17:29:00,
2013-08-15 11:44:00,82.7,51.0,29.75,West,270,2.0,2.0,33,0.00,,,0.00,weatherlink.com 1.10,2013-08-15 17:44:00,
2013-08-15 11:59:00,85.5,51.0,29.75,NW,314,0.0,3.0,30,0.00,,,0.00,weatherlink.com 1.10,2013-08-15 17:59:00,
2013-08-15 12:29:00,86.2,51.0,29.73,West,266,0.0,3.0,30,0.00,,,0.00,weatherlink.com 1.10,2013-08-15 18:29:00,
2013-08-15 12:44:00,87.8,48.0,29.73,NNE,13,1.0,4.0,25,0.00,,,0.00,weatherlink.com 1.10,2013-08-15 18:44:00,
2013-08-15 12:59:00,92.0,49.0,29.73,SE,128,0.0,3.0,23,0.00,,,0.00,weatherlink.com 1.10,2013-08-15 18:59:00,
2013-08-15 13:14:00,88.1,46.0,29.72,West,266,0.0,1.0,23,0.00,,,0.00,weatherlink.com 1.10,2013-08-15 19:14:00,
2013-08-15 13:29:00,87.4,48.0,29.72,WSW,255,0.0,1.0,25,0.00,,,0.00,weatherlink.com 1.10,2013-08-15 19:29:00,
2013-08-15 13:44:00,87.9,47.0,29.72,WSW,244,3.0,4.0,24,0.00,,,0.00,weatherlink.com 1.10,2013-08-15 19:44:00,
2013-08-15 13:59:00,90.0,46.0,29.72,SSE,158,0.0,2.0,22,0.00,,,0.00,weatherlink.com 1.10,2013-08-15 19:59:00,
2013-08-15 14:14:00,93.0,46.0,29.71,West,262,0.0,1.0,20,0.00,,,0.00,weatherlink.com 1.10,2013-08-15 20:14:00,
2013-08-15 14:29:00,88.5,44.0,29.70,NE,44,0.0,1.0,21,0.00,,,0.00,weatherlink.com 1.10,2013-08-15 20:29:00,
2013-08-15 14:59:00,91.4,48.0,29.70,West,274,0.0,4.0,22,0.00,,,0.00,weatherlink.com 1.10,2013-08-15 20:59:00,
2013-08-15 15:14:00,89.8,44.0,29.70,NW,304,2.0,9.0,20,0.00,,,0.00,weatherlink.com 1.10,2013-08-15 21:14:00,
2013-08-15 15:44:00,89.6,45.0,29.69,SSW,208,0.0,9.0,21,0.00,,,0.00,weatherlink.com 1.10,2013-08-15 21:44:00,
2013-08-15 15:59:00,90.1,44.0,29.69,West,260,0.0,6.0,20,0.00,,,0.00,weatherlink.com 1.10,2013-08-15 21:59:00,
2013-08-15 16:14:00,89.9,45.0,29.68,WSW,249,2.0,9.0,21,0.00,,,0.00,weatherlink.com 1.10,2013-08-15 22:14:00,
2013-08-15 16:29:00,93.5,44.0,29.68,ENE,59,1.0,3.0,18,0.00,,,0.00,weatherlink.com 1.10,2013-08-15 22:29:00,
2013-08-15 16:44:00,92.7,46.0,29.68,West,277,0.0,1.0,20,0.00,,,0.00,weatherlink.com 1.10,2013-08-15 22:44:00,
2013-08-15 16:59:00,90.4,41.0,29.68,NW,305,2.0,12.0,18,0.00,,,0.00,weatherlink.com 1.10,2013-08-15 22:59:00,
2013-08-15 17:14:00,89.1,39.0,29.68,NW,316,3.0,14.0,17,0.00,,,0.00,weatherlink.com 1.10,2013-08-15 23:14:00,
2013-08-15 17:29:00,89.5,38.0,29.69,NW,326,10.0,13.0,16,0.00,,,0.00,weatherlink.com 1.10,2013-08-15 23:29:00,
2013-08-15 17:44:00,88.8,39.0,29.69,NNE,16,7.0,19.0,17,0.00,,,0.00,weatherlink.com 1.10,2013-08-15 23:44:00,
2013-08-15 17:59:00,88.6,41.0,29.70,NW,318,0.0,13.0,19,0.00,,,0.00,weatherlink.com 1.10,2013-08-15 23:59:00,
2013-08-15 18:14:00,87.7,43.0,29.70,NE,50,5.0,12.0,21,0.00,,,0.00,weatherlink.com 1.10,2013-08-16 00:14:00,
2013-08-15 18:29:00,86.8,41.0,29.69,NW,310,3.0,13.0,20,0.00,,,0.00,weatherlink.com 1.10,2013-08-16 00:29:00,
2013-08-15 18:44:00,86.9,42.0,29.69,SSW,194,4.0,10.0,21,0.00,,,0.00,weatherlink.com 1.10,2013-08-16 00:44:00,
2013-08-15 18:59:00,86.5,42.0,29.70,NW,310,2.0,9.0,21,0.00,,,0.00,weatherlink.com 1.10,2013-08-16 00:59:00,
2013-08-15 19:14:00,85.0,41.0,29.70,WNW,297,4.0,8.0,21,0.00,,,0.00,weatherlink.com 1.10,2013-08-16 01:14:00,
2013-08-15 19:44:00,80.8,47.0,29.71,WNW,301,6.0,8.0,30,0.00,,,0.00,weatherlink.com 1.10,2013-08-16 01:44:00,
2013-08-15 19:59:00,78.9,47.0,29.71,ESE,105,6.0,6.0,33,0.00,,,0.00,weatherlink.com 1.10,2013-08-16 01:59:00,
2013-08-15 20:14:00,77.3,49.0,29.72,WSW,249,2.0,9.0,37,0.00,,,0.00,weatherlink.com 1.10,2013-08-16 02:14:00,
2013-08-15 20:29:00,76.1,50.0,29.72,SSW,195,2.0,6.0,40,0.00,,,0.00,weatherlink.com 1.10,2013-08-16 02:29:00,
2013-08-15 20:44:00,74.1,51.0,29.73,ESE,111,3.0,6.0,44,0.00,,,0.00,weatherlink.com 1.10,2013-08-16 02:44:00,
2013-08-15 20:59:00,72.1,51.0,29.74,NNW,340,0.0,2.0,48,0.00,,,0.00,weatherlink.com 1.10,2013-08-16 02:59:00,
2013-08-15 21:14:00,71.1,51.0,29.75,South,169,2.0,3.0,50,0.00,,,0.00,weatherlink.com 1.10,2013-08-16 03:14:00,
2013-08-15 21:29:00,69.9,52.0,29.75,ESE,115,2.0,4.0,53,0.00,,,0.00,weatherlink.com 1.10,2013-08-16 03:29:00,
2013-08-15 21:44:00,68.9,52.0,29.76,ENE,76,0.0,2.0,56,0.00,,,0.00,weatherlink.com 1.10,2013-08-16 03:44:00,
2013-08-15 21:59:00,68.0,52.0,29.76,NE,37,0.0,1.0,58,0.00,,,0.00,weatherlink.com 1.10,2013-08-16 03:59:00,
2013-08-15 22:14:00,67.2,52.0,29.77,East,81,0.0,4.0,59,0.00,,,0.00,weatherlink.com 1.10,2013-08-16 04:14:00,
2013-08-15 22:29:00,66.3,52.0,29.77,WSW,256,1.0,2.0,61,0.00,,,0.00,weatherlink.com 1.10,2013-08-16 04:29:00,
2013-08-15 22:45:00,65.7,52.0,29.77,NW,307,0.0,2.0,62,0.00,,,0.00,weatherlink.com 1.10,2013-08-16 04:45:00,
2013-08-15 23:00:00,65.4,52.0,29.77,NW,311,0.0,3.0,63,0.00,,,0.00,weatherlink.com 1.10,2013-08-16 05:00:00,
2013-08-15 23:15:00,64.8,52.0,29.77,NNE,15,0.0,3.0,64,0.00,,,0.00,weatherlink.com 1.10,2013-08-16 05:15:00,
2013-08-15 23:30:00,64.4,52.0,29.78,WNW,290,0.0,2.0,65,0.00,,,0.00,weatherlink.com 1.10,2013-08-16 05:30:00,
2013-08-15 23:45:00,63.3,52.0,29.78,SE,146,0.0,2.0,67,0.00,,,0.00,weatherlink.com 1.10,2013-08-16 05:45:00,